Location: Stara Lesna
(49.1528°N, 20.2911°E)
Time: 13:30:22
(UTC+02:00)

Meteor 1-10 Rocket - Pass Details

Date: 21 September 2019
Orbit: 835 x 911 km, 81.3° (Epoch: 21 October)

Event Time Altitude Azimuth Distance (km) Brightness Sun altitude
Exits shadow 04:34:10 19° 203° (SSW) 2,032 5.8 -18.1°
Maximum altitude 04:38:34 70° 284° (WNW) 970 4.3 -17.4°
Drops below altitude 10° 04:44:31 10° 8° (N) 2,609 7.1 -16.5°
Sets 04:47:01 0° 11° (N) 3,552 7.9 -16.2°
